Location: Newark
(44.2886°N, 4.8431°E)
Time: 15:33:58
(UTC+00:00)

ZACube-1 - Pass Details

Date: 05 December 2020
Orbit: 584 x 665 km, 97.6° (Epoch: 14 January)

Event Time Altitude Azimuth Distance (km) Brightness Sun altitude
Rises 03:37:30 0° 35° (NE) 2,841 ? -35.6°
Reaches altitude 10° 03:41:17 10° 71° (ENE) 1,948 ? -34.9°
Maximum altitude 03:42:35 11° 89° (E) 1,870 ? -34.6°
Drops below altitude 10° 03:43:54 10° 107° (ESE) 1,956 ? -34.4°
Sets 03:47:42 0° 142° (SE) 2,874 ? -33.7°
